TimePST,TemperatureF,Dew PointF,Humidity,Sea Level PressureIn,VisibilityMPH,Wind Direction,Wind SpeedMPH,Gust SpeedMPH,PrecipitationIn,Events,Conditions,WindDirDegrees,DateUTC
12:53 AM,42.1,36.0,79,30.26,10.0,ESE,5.8,-,N/A,,Clear,110,2013-01-02 08:53:00
1:53 AM,39.0,34.0,82,30.24,10.0,Calm,Calm,-,N/A,,Clear,0,2013-01-02 09:53:00
2:53 AM,39.0,33.1,79,30.25,10.0,Calm,Calm,-,N/A,,Clear,0,2013-01-02 10:53:00
3:53 AM,36.0,30.0,79,30.24,10.0,Calm,Calm,-,N/A,,Clear,0,2013-01-02 11:53:00
4:53 AM,39.9,33.1,77,30.23,10.0,SE,5.8,-,N/A,,Clear,140,2013-01-02 12:53:00
5:53 AM,39.9,33.1,77,30.22,10.0,ESE,3.5,-,N/A,,Clear,120,2013-01-02 13:53:00
6:53 AM,41.0,34.0,76,30.23,10.0,SE,3.5,-,N/A,,Clear,130,2013-01-02 14:53:00
7:53 AM,39.9,36.0,86,30.24,10.0,SE,9.2,-,N/A,,Partly Cloudy,140,2013-01-02 15:53:00
8:53 AM,45.0,39.0,80,30.25,10.0,SE,6.9,-,N/A,,Partly Cloudy,140,2013-01-02 16:53:00
9:53 AM,46.9,39.0,74,30.26,10.0,SSE,5.8,-,N/A,,Partly Cloudy,160,2013-01-02 17:53:00
10:53 AM,48.9,39.0,69,30.26,10.0,South,8.1,-,N/A,,Partly Cloudy,170,2013-01-02 18:53:00
11:53 AM,50.0,37.9,63,30.24,10.0,South,5.8,-,N/A,,Partly Cloudy,190,2013-01-02 19:53:00
12:53 PM,51.1,37.9,61,30.21,10.0,WSW,5.8,-,N/A,,Partly Cloudy,240,2013-01-02 20:53:00
1:53 PM,52.0,37.9,59,30.19,10.0,WSW,6.9,-,N/A,,Partly Cloudy,250,2013-01-02 21:53:00
2:53 PM,53.1,37.9,57,30.17,10.0,West,3.5,-,N/A,,Partly Cloudy,270,2013-01-02 22:53:00
3:53 PM,52.0,39.0,61,30.17,10.0,Calm,Calm,-,N/A,,Partly Cloudy,0,2013-01-02 23:53:00
4:53 PM,51.1,41.0,68,30.16,10.0,West,4.6,-,N/A,,Partly Cloudy,260,2013-01-03 00:53:00
5:53 PM,46.9,39.0,74,30.17,10.0,Calm,Calm,-,N/A,,Partly Cloudy,0,2013-01-03 01:53:00
6:53 PM,48.9,37.0,64,30.17,10.0,Calm,Calm,-,N/A,,Clear,0,2013-01-03 02:53:00
7:53 PM,45.0,35.1,68,30.18,10.0,NE,3.5,-,N/A,,Clear,50,2013-01-03 03:53:00
8:53 PM,46.0,37.0,71,30.18,10.0,Calm,Calm,-,N/A,,Clear,0,2013-01-03 04:53:00
9:53 PM,43.0,37.0,80,30.19,10.0,ENE,3.5,-,N/A,,Clear,70,2013-01-03 05:53:00
10:53 PM,43.0,35.1,74,30.19,10.0,Calm,Calm,-,N/A,,Clear,0,2013-01-03 06:53:00
11:53 PM,42.1,34.0,73,30.19,10.0,Calm,Calm,-,N/A,,Clear,0,2013-01-03 07:53:00